Regional Weather Roundup
Issued by NWS

Home | Current Version | Previous Version | Text Only | Print | Product List | Glossary Off
Versions: 1 2 3 4 5 6 7 8 9 10 11 12 13 14 15 16 17 18 19 20 21 22 23 24 25 26 27 28 29 30 31 32 33 34 35 36 37 38 39 40 41 42 43 44 45 46 47 48 49 50

000
ASUS43 KTOP 250908
RWRKS

WEATHER ROUNDUP FOR KANSAS
NATIONAL WEATHER SERVICE GOODLAND KS
400 AM CDT SAT APR 25 2015

NOTE:  "FAIR" INDICATES FEW OR NO CLOUDS BELOW 12,000 FEET WITH NO
SIGNIFICANT WEATHER AND/OR OBSTRUCTIONS TO VISIBILITY.

KSZ001>006-013>018-027>032-041>047-251000-
NORTHWEST KANSAS

CITY           SKY/WX    TMP DP  RH WIND       PRES   REMARKS
GOODLAND       CLOUDY    49  41  74 NW9       29.63S
HAYS           CLOUDY    54  45  71 N15       29.51F
HILL CITY      CLOUDY    53  49  86 W14G22    29.53F
RUSSELL        LGT RAIN  55  53  93 NW20      29.51R
$$

KSZ061>065-074>080-084>089-251000-
SOUTHWEST KANSAS

CITY           SKY/WX    TMP DP  RH WIND       PRES   REMARKS
DODGE CITY     MOCLDY    51  45  79 W9        29.57R
ELKHART          N/A     50  38  63 W10         N/A
GARDEN CITY    CLOUDY    47  44  90 W8        29.60R
GREAT BEND     CLOUDY    55  48  76 NW23G29   29.54R
LIBERAL        CLEAR     48  39  71 W6        29.64S
$$

KSZ066>073-081>083-090>101-251000-
SOUTHEAST KANSAS

CITY           SKY/WX    TMP DP  RH WIND       PRES   REMARKS
CHANUTE        CLOUDY    62  59  90 S14G24    29.44F
COFFEYVILLE    MOCLDY    61  58  90 S16G26    29.45F
HUTCHINSON     CLOUDY    56  52  86 W12       29.46S
MEDICINE LODGE   N/A     55  50  83 NW10      29.52R
NEWTON         CLOUDY    54  48  82 NW13G20   29.45R
PARSONS        CLOUDY    62  59  90 S16G24    29.45F
WICHITA INTL   LGT RAIN  57  55  93 W22G30    29.44R
WICHITA JABRA  MOCLDY    60  57  89 W16       29.42R
WICHITA MCCONL MOCLDY    57  55  94 W17       29.43R
WINFIELD       PTCLDY    60  55  83 SW17G24   29.45S
$$

KSZ007>012-019>026-033>040-048>060-102>105-251000-
NORTHEAST KANSAS

CITY           SKY/WX    TMP DP  RH WIND       PRES   REMARKS
CONCORDIA      LGT RAIN  54  52  93 NW13      29.42R
EMPORIA        LGT RAIN  55  54  96 SE9       29.40F
LAWRENCE       LGT RAIN  56  53  90 SE12      29.41F
MANHATTAN      LGT RAIN  56  55  97 W7        29.40R
MARYSVILLE     RAIN      55  54  94 SE13      29.32F
OLATHE IND     LGT RAIN  56  54  93 SE9       29.45F
OLATHE EXE     LGT RAIN  56  55  97 SE7       29.46S
SALINA         CLOUDY    56  53  90 W16       29.43F
TOPEKA BILLARD CLOUDY    59  55  87 SE6       29.39F
TOPEKA FORBES  CLOUDY    58  54  86 SE8       29.39F
$$


USA.gov is the U.S. government's official web portal to all federal, state and local government web resources and services.